Truckee-Tahoe, CA

9:22 PM PDT on September 19, 2017 (GMT -0700)
Truckee-Tahoe

Weather History for KTRK - September, 2013

Change the Weather History Date:

Saturday, September 14, 2013

  Actual Average Record
Temperature  
Mean Temperature 58 °F -  
Max Temperature 78 °F 74 °F 92 °F (1971)
Min Temperature 37 °F 36 °F 23 °F (1966)
Degree Days  
Heating Degree Days 8    
Growing Degree Days 8 (Base 50)    
Moisture  
Dew Point 44 °F    
Average Humidity 77    
Maximum Humidity 100    
Minimum Humidity 24    
Precipitation  
Precipitation 0.00 in - - ()
Sea Level Pressure  
Sea Level Pressure 30.07 in    
Wind  
Wind Speed 2 mph (SSE)    
Max Wind Speed 12 mph    
Max Gust Speed -    
Visibility 8 miles    
Events Fog , Thunderstorm    
Averages and records for this station are not official NWS values.
T = Trace of Precipitation, MM = Missing Value Source: NWS Daily Summary

Daily Weather History Graph

Daily Weather History Graph

Search for Another Location

Airport or City:

Trip Planner

Search our weather history database for the weather conditions in past years. The results will help you decide how hot, cold, wet, or windy it might be!

Date:

Astronomy

Sep. 14, 2013 Rise Set
Actual Time 6:41 AM PDT 7:10 PM PDT
Civil Twilight 6:14 AM PDT 7:36 PM PDT
Nautical Twilight 5:42 AM PDT 8:08 PM PDT
Astronomical Twilight 5:10 AM PDT 8:40 PM PDT
Moon 3:54 PM PDT (9/14) 1:19 AM PDT (9/14)
Length of Visible Light 13h 22m
Length of Day
12h 28m
Waxing Gibbous, 73% of the Moon is Illuminated
Sep 14
Waxing Gibbous
Sep 19
Full
Sep 26
Last Quarter
Oct 4
New
Oct 11
First Quarter

Hourly Weather History & Observations

Time (PDT) Temp. Dew Point Humidity Pressure Visibility Wind Dir Wind Speed Gust Speed Precip Events Conditions
12:15 AM 48.2 °F 44.6 °F 87% 30.10 in 10.0 mi ESE 3.5 mph - N/A   Clear
12:35 AM 46.4 °F 44.6 °F 93% 30.10 in 10.0 mi Calm Calm - N/A   Clear
12:55 AM 48.2 °F 44.6 °F 87% 30.10 in 10.0 mi SSE 3.5 mph - N/A   Clear
1:15 AM 44.6 °F 42.8 °F 93% 30.10 in 10.0 mi Calm Calm - N/A   Clear
1:35 AM 46.4 °F 44.6 °F 93% 30.10 in 10.0 mi Calm Calm - N/A   Clear
1:55 AM 44.6 °F 41.0 °F 87% 30.09 in 10.0 mi Calm Calm - N/A   Clear
2:15 AM 44.6 °F 42.8 °F 93% 30.09 in 10.0 mi Calm Calm - N/A   Clear
2:35 AM 44.6 °F 42.8 °F 93% 30.09 in 3.0 mi Calm Calm - N/A   Clear
2:55 AM 42.8 °F 41.0 °F 93% 30.09 in 1.0 mi Calm Calm - N/A   Clear
3:15 AM 44.6 °F 42.8 °F 93% 30.09 in 0.5 mi Calm Calm - N/A Fog Fog
3:35 AM 44.6 °F 42.8 °F 93% 30.09 in 10.0 mi Calm Calm - N/A   Clear
3:55 AM 39.2 °F 39.2 °F 100% 30.09 in 0.5 mi Calm Calm - N/A Fog Fog
4:15 AM 41.0 °F 41.0 °F 100% 30.09 in 0.2 mi Calm Calm - N/A Fog Fog
4:35 AM 41.0 °F 41.0 °F 100% 30.09 in 0.8 mi Calm Calm - N/A   Mist
4:55 AM 41.0 °F 41.0 °F 100% 30.09 in 6.0 mi Calm Calm - N/A   Clear
5:15 AM 39.2 °F 39.2 °F 100% 30.09 in 0.2 mi Calm Calm - N/A Fog Fog
5:35 AM 41.0 °F 41.0 °F 100% 30.09 in 0.8 mi Calm Calm - N/A   Mist
5:55 AM 39.2 °F 39.2 °F 100% 30.09 in 0.2 mi Calm Calm - N/A Fog Fog
6:15 AM 39.2 °F 39.2 °F 100% 30.09 in 0.2 mi Calm Calm - N/A Fog Fog
6:35 AM 39.2 °F 39.2 °F 100% 30.10 in 0.2 mi Calm Calm - N/A Fog Fog
6:45 AM 37.4 °F 37.4 °F 100% 30.10 in 10.0 mi Calm Calm - N/A   Partly Cloudy
7:45 AM 42.8 °F 42.8 °F 100% 30.11 in 10.0 mi Calm Calm - N/A   Clear
8:55 AM 50.0 °F 44.6 °F 82% 30.11 in 10.0 mi Calm Calm - N/A   Clear
9:55 AM 59.0 °F 46.4 °F 63% 30.10 in 10.0 mi North 3.5 mph - N/A   Partly Cloudy
10:45 AM 66.2 °F 46.4 °F 49% 30.09 in 10.0 mi Calm Calm - N/A   Scattered Clouds
11:55 AM 75.2 °F 37.4 °F 25% 30.07 in 10.0 mi NW 3.5 mph - N/A   Scattered Clouds
12:50 PM 78.8 °F 41.0 °F 26% 30.05 in 10.0 mi SSW 9.2 mph - N/A   Mostly Cloudy
1:45 PM 78.8 °F 39.2 °F 24% 30.03 in 10.0 mi WSW 4.6 mph - N/A   Mostly Cloudy
2:55 PM 75.2 °F 46.4 °F 36% 30.03 in 10.0 mi West 8.1 mph - N/A   Mostly Cloudy
3:55 PM 71.6 °F 44.6 °F 38% 30.03 in 10.0 mi SSE 6.9 mph - N/A   Mostly Cloudy
4:50 PM 66.2 °F 51.8 °F 60% 30.02 in 10.0 mi SSE 6.9 mph - N/A   Mostly Cloudy
5:45 PM 71.6 °F 50.0 °F 46% 30.02 in 10.0 mi SSE 3.5 mph - N/A   Mostly Cloudy
5:55 PM 71.6 °F 50.0 °F 46% 30.02 in 10.0 mi Calm Calm - N/A   Clear
6:15 PM 71.6 °F 50.0 °F 46% 30.02 in 10.0 mi Calm Calm - N/A   Clear
6:35 PM 73.4 °F 44.6 °F 36% 30.02 in 10.0 mi West 11.5 mph - N/A   Clear
6:55 PM 71.6 °F 44.6 °F 38% 30.02 in 10.0 mi West 9.2 mph - N/A Thunderstorm Clear
7:15 PM 64.4 °F 50.0 °F 59% 30.03 in 10.0 mi SSE 4.6 mph - N/A   Clear
7:35 PM 59.0 °F 50.0 °F 72% 30.04 in 10.0 mi SE 6.9 mph - N/A   Clear
7:55 PM 59.0 °F 48.2 °F 67% 30.04 in 10.0 mi SSE 5.8 mph - N/A   Clear
8:15 PM 57.2 °F 50.0 °F 77% 30.05 in 10.0 mi SE 8.1 mph - N/A   Partly Cloudy
8:35 PM 55.4 °F 48.2 °F 77% 30.05 in 10.0 mi SSE 3.5 mph - N/A   Partly Cloudy
8:55 PM 55.4 °F 48.2 °F 77% 30.06 in 10.0 mi SE 6.9 mph - N/A   Clear
9:15 PM 53.6 °F 48.2 °F 82% 30.06 in 10.0 mi SSE 5.8 mph - N/A   Clear
9:35 PM 51.8 °F 48.2 °F 88% 30.06 in 10.0 mi Calm Calm - N/A   Clear
9:55 PM 50.0 °F 46.4 °F 87% 30.06 in 10.0 mi Calm Calm - N/A   Clear
10:15 PM 50.0 °F 46.4 °F 87% 30.06 in 10.0 mi Calm Calm - N/A   Clear
10:35 PM 50.0 °F 44.6 °F 82% 30.06 in 10.0 mi SSE 4.6 mph - N/A   Clear
10:55 PM 50.0 °F 44.6 °F 82% 30.06 in 10.0 mi SSE 4.6 mph - N/A   Clear
11:15 PM 50.0 °F 46.4 °F 87% 30.06 in 10.0 mi Calm Calm - N/A   Clear
11:35 PM 50.0 °F 44.6 °F 82% 30.06 in 10.0 mi Calm Calm - N/A   Clear
11:55 PM 50.0 °F 46.4 °F 87% 30.06 in 10.0 mi Calm Calm - N/A   Clear